Погода в Лятошинке

Россия / Волгоградская область     50°36′51″N   46°33′23″E
темп.,
°C
ветер,
м/с
пор.,
м/с
влажн.,
%
обл.,
%
осадки,
мм/ч
давл.,
гПа
погр.,
м
13 мая, чт
чт1300:00+12с46895 0.0 101996
03:00+12ссв49921 0.0 1017159
06:00+15в489167 0.8 1016229
09:00+22юв67635 1.8 1016800
12:00+25ююв68511 0.0 10161572
15:00+27ю79450 0.0 10162155
18:00+25ююз46560 0.0 1016189
21:00+19зюз117216 0.0 101711
14 мая, пт
пт1400:00+18св2270100 0.0 101711
03:00+17всв337832 0.0 101817
06:00+18юв347097 0.0 1019119
09:00+24юв5649100 0.0 1019520
12:00+28ююв68360 0.0 10191131
15:00+30юв79324 0.0 10181437
18:00+27юв5114239 0.0 1017238
21:00+21юв5144964 0.0 1018221
15 мая, сб
сб1500:00+19ююв51342100 0.0 1018210
03:00+18ююв463967 0.0 101977
06:00+18юв38465 0.0 1019167
09:00+26юв69295 0.0 1019517
12:00+30ююв810244 0.0 10181282
15:00+31ю710190 0.0 10172554
18:00+27ююв463596 0.0 1016101
21:00+22ююв510455 0.0 1017138
16 мая, вс
вс1600:00+20ююв48425 0.0 1016106
03:00+18ю44446 0.0 101746
06:00+19ююв355184 0.0 1017113
09:00+26ююв353457 0.0 1017462
12:00+30юв57245 0.0 10171599
15:00+32ю582182 0.0 10153650
18:00+29юв343693 0.0 101456
21:00+24ююв51344100 0.0 1015272
17 мая, пн
пн1700:00+21ююв4737100 0.0 101597
03:00+19юв443289 0.0 101646
06:00+20вюв4739100 0.0 1016112
09:00+27юв71227100 0.0 1016644
12:00+31юв8920100 0.0 10152556
15:00+31юв7819100 0.0 10153068
18:00+27вюв483483 0.0 1014174
21:00+21вюв473990 0.0 101584